Regional Weather Roundup
Issued by NWS

Home | Current Version | Previous Version | Graphics & Text | Print | Product List | Glossary On
Versions: 1 2 3 4 5 6 7 8 9 10 11 12 13 14 15 16 17 18 19 20 21 22 23 24 25 26 27 28 29 30 31 32 33 34 35 36 37 38 39 40 41 42 43 44 45 46 47 48 49 50
000
ASUS43 KDTX 050401
RWRMI
MICHIGAN HOURLY REGIONAL WEATHER ROUNDUP
NATIONAL WEATHER SERVICE DETROIT/PONTIAC MI
1200 AM EDT WED AUG 05 2015

NOTE: "FAIR" INDICATES FEW OR NO CLOUDS BELOW 12,000 FEET WITH NO
SIGNIFICANT WEATHER AND/OR OBSTRUCTION TO VISIBILITY.

MIZ047>049-052>055-059>063-066>070-074>076-081>083-050500-
SOUTHEAST LOWER MICHIGAN

CITY           SKY/WX    TMP DP  RH WIND       PRES   REMARKS
ADRIAN         PTCLDY    63  56  78 NW7       30.02S
ALMA           CLEAR     56  54  92 CALM      30.03R
ANN ARBOR      CLEAR     61  56  83 NW5       30.01R
BAD AXE        CLOUDY    58  58  97 CALM      30.00R
CARO           MOCLDY    62  59  90 W5        29.99R
DETROIT CITY   CLEAR     70  53  54 NW6       29.99R
DETROIT        PTCLDY    67  55  65 W6        30.00R
FLINT          FAIR      63  55  75 NW7       30.01R
GROSSE ILE     PTCLDY    68  57  68 W3        29.98S
HILLSDALE      PTCLDY    61  58  92 CALM      30.03S
HOWELL         CLEAR     62  53  73 W5        30.01S

CITY           SKY/WX    TMP DP  RH WIND       PRES   REMARKS
JACKSON        CLEAR     61  56  83 NW5       30.03R
LAMBERTVILLE   PTCLDY    65  57  74 W3        30.01S
LANSING        CLEAR     63  54  72 NW5       30.02S
LAPEER         FAIR      62  61  97 CALM      30.00S
MASON          CLEAR     58  53  84 CALM      30.03R
MONROE         PTCLDY    64  57  78 W5        29.99S
MT. CLEMENS    PTCLDY    65  61  87 NW3       29.97R
PONTIAC        PTCLDY    66  54  65 NW8       29.99S
PORT HOPE        N/A     60  58  92 SW3       29.98R
PORT HURON     MOCLDY    61  61 100 CALM      29.99R
TRI CITIES     MOCLDY    63  56  78 W6        30.01R
MIDLAND        MOCLDY    59  56  90 CALM      30.01R
TROY           CLEAR     70  54  56 W5        30.01R
SAGINAW HB     MOCLDY    63  57  82 W6        30.00R
$$
MIZ043>046-050>051-056>058-064>065-071>073-077>080-050500-
SOUTHWEST LOWER MICHIGAN

CITY           SKY/WX    TMP DP  RH WIND       PRES   REMARKS
BATTLE CREEK     N/A    N/A N/A N/A MISG      30.04R
BENTON HARBOR  PTCLDY    60  57  89 CALM      30.03R
BIG RAPIDS     CLEAR     58  54  86 CALM      30.03R
COLDWATER      CLEAR     61  56  86 CALM      30.03S
FREMONT        FAIR      59  58  94 CALM      30.03R
HOLLAND        MOCLDY    62  58  86 CALM      30.03S
GRAND RAPIDS   PTCLDY    64  55  72 CALM      30.02S
IONIA          FAIR      60  54  82 CALM      30.02S
KALAMAZOO      CLEAR     62  55  77 CALM      30.04R
LUDINGTON      PTCLDY    58  56  92 CALM      30.03R
MARSHALL       CLEAR     59  55  87 CALM      30.03S
MOUNT PLEASANT MOCLDY    62  56  81 CALM      30.01S
MUSKEGON       PTCLDY    64  58  80 CALM      30.02R
SOUTH HAVEN    PTCLDY    58  56  92 CALM      30.02S
$$
MIZ016>042-050500-
NORTHERN LOWER MICHIGAN

CITY           SKY/WX    TMP DP  RH WIND       PRES   REMARKS
ALPENA         CLEAR     58  50  75 NW6       29.99R
BEAVER ISLAND  PTCLDY    58  49  73 NW6       30.02R
BELLAIRE       PTCLDY    57  54  88 CALM      30.01S
CADILLAC       PTCLDY    54  53  95 SW3       30.03S
CHARLEVOIX     CLOUDY    62  52  70 NW10      30.04R
FRANKFORT      MOCLDY    59  58  95 CALM      30.02S
GAYLORD        CLEAR     58  56  93 NW3       30.02R
GRAYLING       MOCLDY    57  54  88 CALM      30.02R
HARBOR SPRINGS CLOUDY    58  51  77 NW5       30.00S
HOUGHTON LAKE  PTCLDY    58  52  80 NW3       30.02R
MANISTEE       MOCLDY    57  52  82 CALM      30.03R
OSCODA         CLEAR     55  54  97 SW3       29.98R
PELLSTON       CLEAR     51  49  92 NW3       30.01R
ROGERS CITY    CLEAR     59  50  72 NW10      29.99S
TRAVERSE CITY  CLEAR     58  54  86 CALM      30.00R
$$
MIZ007>008-015-050500-
EASTERN UPPER MICHIGAN

CITY           SKY/WX    TMP DP  RH WIND       PRES   REMARKS
KINROSS        CLEAR     52  48  87 W5        29.99R
MACKINAC ISLAN CLEAR     55  47  73 NW7       30.00R
NEWBERRY       CLEAR     48  47  94 W7        30.00S
S. S. MARIE    CLEAR     54  50  86 W6        29.97S
MUNISING         N/A     53  49  86 S7        30.02R
$$
MIZ004>006-011>014-085-050500-
CENTRAL UPPER MICHIGAN

CITY           SKY/WX    TMP DP  RH WIND       PRES   REMARKS
MANISTIQUE     CLEAR     49  47  92 W3        30.02R
ESCANABA       CLEAR     52  48  87 N5        30.03S
MENOMINEE      PTCLDY    59  54  82 CALM      30.03R
SAWYER-GWINN   CLEAR     50  47  91 CALM      30.05R
$$
MIZ001>003-009>011-084-050500-
WESTERN UPPER MICHIGAN

CITY           SKY/WX    TMP DP  RH WIND       PRES   REMARKS
IRON MOUNTAIN  CLEAR     54  49  83 CALM      30.04R
HOUGHTON       CLEAR     52  48  86 NW8       30.03S
COPPER HARBOR    N/A     58  51  78 VRB5      30.02R
IRONWOOD       CLEAR     48  48 100 CALM      30.04S
$$

ABBREVIATIONS USED IN REMARKS
   TC - TEMPERATURE IN CELSIUS
  WCI - WIND CHILL INDEX
   HX - HEAT INDEX
  VSB - VISIBILITY



USA.gov is the U.S. government's official web portal to all federal, state and local government web resources and services.